Regional Weather Roundup
Issued by NWS

Home | Current Version | Previous Version | Graphics & Text | Print | Product List | Glossary On
Versions: 1 2 3 4 5 6 7 8 9 10 11 12 13 14 15 16 17 18 19 20 21 22 23 24 25 26 27 28 29 30 31 32 33 34 35 36 37 38 39 40 41 42 43 44 45 46 47 48 49 50
000
ASUS45 KPSR 290300
RWRAZ

ARIZONA HOURLY REGIONAL WEATHER ROUNDUP
NATIONAL WEATHER SERVICE PHOENIX AZ
800 PM MST FRI AUG 28 2015

NOTE: FAIR INDICATES FEW OR NO CLOUDS BELOW 12,000 FEET WITH NO
SIGNIFICANT WEATHER AND/OR OBSTRUCTIONS TO VISIBILITY.

AZZ001>003-036-290400-
NORTHWEST ARIZONA

CITY           SKY/WX    TMP DP  RH WIND       PRES   REMARKS
KINGMAN        CLEAR     84  48  28 SW6       29.99R
$$

AZZ004>008-015-016-018-290400-
NORTH CENTRAL ARIZONA

CITY           SKY/WX    TMP DP  RH WIND       PRES   REMARKS
GRAND CANYON   PTCLDY    62  43  49 CALM      30.29R
WILLIAMS       PTCLDY    64  54  68 S8        30.34R
PRESCOTT       MOCLDY    77  52  41 S7        30.14R
FLAGSTAFF      NOT AVBL
PAYSON         PTCLDY    79  50  36 CALM      30.16R
PAGE           CLEAR     83  42  23 CALM      30.07R
$$

AZZ009>014-017-290400-
NORTHEAST ARIZONA

CITY           SKY/WX    TMP DP  RH WIND       PRES   REMARKS
WINSLOW        NOT AVBL
SAINT JOHNS    PTCLDY    72  55  55 S5        30.17R
WINDOW ROCK    CLEAR     68  46  45 S3        30.28R
SHOW LOW       CLEAR     66  50  55 S8        30.25R
$$

AZZ023-290400-
GREATER PHOENIX AREA

CITY           SKY/WX    TMP DP  RH WIND       PRES   REMARKS
PHOENIX        MOCLDY   103  52  18 W6        29.76R HX 100
GLENDALE       MOCLDY   104  54  18 S6        29.78R HX 102
LUKE AFB       MOCLDY    98  62  30 SW5       29.76R
DEER VALLEY    MOCLDY   101  52  19 SW8       29.79R
SCOTTSDALE     MOCLDY   102  50  17 SW3       29.81R
MESA-FALCON    PTCLDY   100  52  19 S8        29.79R
MESA-GATEWAY   PTCLDY    97  54  23 W6        29.82R
CHANDLER       MOCLDY    99  55  23 S10       29.78R
$$

AZZ027-028-290400-
SOUTHWEST MARICOPA COUNTY AND PINAL COUNTY

CITY           SKY/WX    TMP DP  RH WIND       PRES   REMARKS
CASA GRANDE    PTCLDY    97  52  21 CALM      29.80R
GILA BEND      FAIR     101  52  19 W5        29.75R
$$

AZZ503-504-507>509-290400-
SOUTHEAST ARIZONA

CITY           SKY/WX    TMP DP  RH WIND       PRES   REMARKS
TUCSON         PTCLDY    93  56  28 SW5       29.94R
DAVIS-MONTHAN  MOCLDY    91  56  30 SW5       29.93R
RYAN FIELD     CLEAR     91  57  31 S6        29.91R
NOGALES        PTCLDY    83  54  36 SE3       30.05
SIERRA VISTA   PTCLDY    79  57  46 S8        30.13R
SAFFORD        CLEAR     86  58  38 E6        29.94R
$$

AZZ020-021-025-026-031-290400-
SOUTHWEST ARIZONA

CITY           SKY/WX    TMP DP  RH WIND       PRES   REMARKS
YUMA           NOT AVBL
$$

CAZ031-033-041-043-047-048-061-290400-
SOUTHERN CALIFORNIA

CITY           SKY/WX    TMP DP  RH WIND       PRES   REMARKS
DOWNTOWN L.A.  CLEAR     79  64  60 CALM      29.81S
L.A. AIRPORT   PTCLDY    75  67  76 W7        29.82R
SAN DIEGO      PTCLDY    80  66  62 CALM      29.85R
BURBANK        CLEAR     88  56  33 SE6       29.83R
ONTARIO        PTCLDY    89  53  29 SW10      29.84R
RIVERSIDE      CLEAR     89  54  30 W8        29.84R
PALM SPRINGS   CLEAR    106  50  15 NW8       29.74R HX 103
EL CENTRO NAS  CLEAR    102  62  26 SE5       29.70R HX 104
IMPERIAL       CLEAR    107  60  21 SE9       29.67S HX 108
BLYTHE         CLEAR    105  60  22 S9        29.72R HX 106
$$

NVZ020-UTZ003-290400-
SOUTHERN NEVADA-UTAH

CITY           SKY/WX    TMP DP  RH WIND       PRES   REMARKS
LAS VEGAS      NOT AVBL
SALT LAKE CITY PTCLDY    82  39  21 SE7       30.04R
$$

NMZ009-TXZ055-290400-
NEW MEXICO-WEST TEXAS

CITY           SKY/WX    TMP DP  RH WIND       PRES   REMARKS
ALBUQUERQUE    MOCLDY    76  48  37 E20       30.17R
EL PASO        MOCLDY    78  57  48 SE12      30.09R
$$


........................KEY........................
SKY/WX - SKY CONDITION/WEATHER
TMP    - TEMPERATURE IN FAHRENHEIT
DP     - DEW POINT IN FAHRENHEIT
RH     - RELATIVE HUMIDITY IN PERCENT
WIND   - DIRECTION AND SPEED IN MILES PER HOUR (MPH)
VRB    - VARIABLE WIND DIRECTION
PRES   - MEAN SEA LEVEL PRESSURE IN INCHES OF MERCURY
         F - FALLING PRESSURE   R - RISING PRESSURE
         S - STEADY PRESSURE
VSB    - VISIBILITY IN MILES
HX     - HEAT INDEX IN FAHRENHEIT
WCI    - WIND CHILL INDEX IN FAHRENHEIT
TC     - TEMPERATURE IN CELSIUS WHICH IS ALSO KNOWN AS
         TEMPERATURE IN CENTIGRADE
AFB    - AIR FORCE BASE
         LUKE AFB IS LUKE AIR FORCE BASE
         DAVIS-MONTHAN IS DAVIS-MONTHAN AIR FORCE BASE
NAS    - NAVAL AIR STATION
         EL CENTRO NAS IS EL CENTRO NAVAL AIR STATION
N/A    - NOT AVAILABLE



USA.gov is the U.S. government's official web portal to all federal, state and local government web resources and services.